Voltar ao catálogo

FENGYUN 1C DEB

AtivoSSO
NORAD 35180·DEBRIS·🇨🇳 China

Lançado May 10, 1999 de Taiyuan Satellite Launch Center

Loading…

Próximas Passagens (próximas 24 horas)

TLE

EnvelhecendoSource: Space-Track

Época: Sep 7, 2026, 17:16 UTC

1 35180U 99025DNL 26250.71988923  .00002096  00000-0  89347-3 0  9995
2 35180  99.7566  63.5912 0481599  37.5480 325.8300 13.78149422 37350

Acompanhe FENGYUN 1C DEB em tempo real com AllMySat

Download on the App Store